Wind_Speed
76 75 74 73 74 73 72 74 75 76 78 80 82 83 84 86 94 100 103 104 104 104 102 101 99 99 97 95 92 89 87 84 81 77 74 73 73 71 70 69 68 66 62
79 79 80 79 80 79 79 80 80 80 81 82 83 85 87 88 89 91 93 99 106 103 102 101 97 97 96 94 93 91 92 92 89 85 82 77 76 77 75 73 72 70 67
79 80 80 81 83 83 84 86 87 88 88 89 89 88 88 88 89 91 91 91 95 103 105 100 98 97 95 94 92 89 86 85 85 83 83 82 79 77 78 75 74 71 69
72 73 75 78 81 79 80 82 85 87 89 91 93 93 92 92 90 90 91 92 91 92 99 104 103 101 98 95 92 89 88 86 83 79 79 80 80 76 74 71 71 69 68
65 66 67 69 72 74 76 77 78 79 80 84 86 89 92 96 95 93 93 91 91 91 90 91 94 99 101 100 98 94 89 86 82 79 79 76 77 72 68 68 66 62 59
59 61 62 64 65 67 68 70 72 73 76 79 80 81 83 84 89 93 95 94 93 91 91 90 90 89 88 88 93 97 96 92 86 82 78 74 73 69 64 75 64 59 58
53 54 56 59 60 61 60 61 59 58 62 66 71 76 76 76 77 82 89 93 95 94 90 88 88 87 87 85 83 85 91 95 92 86 80 76 72 69 69 72 66 63 60
39 40 42 44 47 51 54 55 55 55 56 60 64 66 65 67 72 76 77 80 88 92 93 90 87 85 84 82 81 79 79 82 88 90 85 79 75 72 70 69 68 66 63
37 39 40 40 40 40 41 45 46 45 46 48 52 56 59 61 62 64 69 72 74 80 89 91 90 86 83 81 79 78 76 74 75 83 89 87 79 77 73 71 70 68 63
41 40 42 42 43 43 44 44 42 39 38 40 41 48 50 52 54 58 60 64 68 72 76 83 89 89 85 81 79 78 76 73 70 71 76 82 84 81 79 78 72 76 66
53 52 51 50 50 49 48 47 47 44 41 39 38 36 36 40 45 51 56 58 60 63 69 73 79 84 87 83 79 77 74 71 69 68 67 68 70 73 74 74 74 78 75
59 60 59 58 56 55 55 55 52 50 46 42 38 37 35 28 34 41 48 54 55 57 61 66 70 76 81 83 80 77 75 73 69 67 65 64 63 63 65 66 60 68 70
62 63 62 61 61 59 58 59 58 56 55 51 45 42 37 33 28 31 39 48 54 57 58 60 65 69 72 77 79 78 76 75 72 69 65 62 60 57 56 60 55 59 62
76 73 69 66 63 62 62 60 60 63 62 58 52 47 45 42 34 29 30 35 44 51 55 58 59 62 66 70 73 77 77 75 73 69 65 62 60 56 53 57 55 57 53
74 71 69 66 62 62 63 63 61 61 65 64 61 53 49 47 40 35 31 30 33 42 48 53 59 57 61 65 68 70 73 72 72 69 65 63 59 57 53 56 61 67 70
64 62 62 63 61 57 59 62 64 65 63 67 66 59 53 51 45 40 36 32 29 30 36 48 54 58 58 60 64 66 68 69 69 68 65 63 59 56 54 54 57 53 55
57 57 57 55 55 55 54 58 62 62 64 66 67 63 57 53 50 43 38 37 32 30 29 40 48 57 59 57 60 64 66 66 67 68 66 63 59 56 55 54 54 60 66
45 51 51 50 49 48 49 52 57 61 62 66 68 65 62 56 51 46 41 38 36 32 29 35 44 54 60 58 57 59 63 65 65 65 65 63 59 56 53 51 53 54 56
36 39 44 43 44 42 43 47 52 58 62 64 66 66 65 59 54 49 45 41 37 34 32 32 39 50 59 60 56 56 57 63 65 66 65 64 60 56 54 51 49 46 45
34 29 33 36 37 36 38 42 46 53 61 65 66 64 65 64 58 52 47 43 38 35 33 32 37 47 57 60 56 54 54 60 65 67 66 64 61 56 53 50 47 45 47
36 27 25 28 30 30 32 37 41 46 56 62 64 65 64 64 63 56 49 45 39 35 33 31 35 46 54 60 58 54 53 55 63 67 66 65 62 56 53 50 48 45 39
35 25 20 20 21 23 27 31 35 42 49 56 61 65 65 64 63 56 51 47 41 37 30 29 34 44 53 59 57 54 50 52 61 66 67 64 61 56 52 52 51 48 45
33 24 18 14 14 16 20 25 29 35 43 49 55 62 63 62 60 55 53 49 41 34 29 27 34 44 52 59 59 54 48 48 58 67 67 63 59 56 54 55 50 45 43
30 22 15 10 7 10 15 20 23 29 37 45 51 57 60 60 58 56 55 48 43 35 31 32 36 45 52 59 60 54 47 46 57 66 65 63 59 56 55 57 53 52 45
27 20 14 7 2 6 12 15 20 26 32 42 48 54 57 59 56 57 56 48 40 34 31 32 36 46 52 60 60 53 48 47 57 65 65 63 59 57 57 59 56 52 48
30 22 16 10 3 6 11 14 19 27 33 42 48 51 57 58 56 57 51 43 38 34 33 32 41 48 55 58 54 48 44 49 59 64 64 62 59 55 55 58 55 51 49
Wind_Direction
269 267 266 263 262 259 258 256 254 252 251 250 249 248 246 245 244 244 243 242 243 243 243 244 245 247 247 248 247 248 249 250 251 252 252 253 254 255 256 258 260 264 267
266 265 264 263 261 258 257 255 254 252 250 249 247 247 246 246 245 245 245 243 242 243 243 243 243 245 246 247 247 248 248 249 250 251 251 252 254 256 256 257 259 261 265
266 265 264 263 261 259 258 257 254 253 251 250 248 247 245 246 245 246 245 244 243 242 241 242 243 243 244 245 246 246 246 247 248 249 250 251 252 255 256 257 259 261 263
269 269 269 268 267 265 263 261 259 257 256 254 252 249 248 245 244 245 245 244 243 243 242 242 243 243 244 245 245 245 245 246 247 248 249 248 250 252 256 256 256 258 260
271 268 266 265 264 263 263 262 261 259 258 256 254 252 249 248 245 243 244 244 244 243 242 242 242 243 243 244 244 244 244 244 246 247 248 247 247 249 252 253 253 255 256
275 275 274 272 269 267 266 265 263 262 261 259 257 255 252 249 246 243 242 243 243 243 242 241 241 242 241 242 242 241 242 244 244 245 244 244 246 246 244 253 251 252 254
275 274 273 272 272 271 267 264 261 257 256 257 257 254 253 251 248 244 239 239 241 242 242 241 241 240 241 241 240 240 240 241 242 241 241 242 243 243 245 249 251 250 251
279 278 277 275 272 269 265 265 264 260 257 254 255 255 254 250 247 245 241 238 237 238 239 240 239 239 238 239 239 239 239 239 239 238 240 241 242 243 244 247 249 250 250
283 281 276 272 269 267 267 266 265 265 263 258 256 256 253 249 246 244 242 239 235 235 235 235 237 238 237 235 236 237 237 237 237 238 238 239 239 242 245 247 248 250 249
281 277 272 270 269 267 267 265 263 261 259 256 253 253 254 252 246 242 238 236 234 233 234 233 232 233 235 235 234 235 236 236 236 235 236 237 239 242 244 244 246 249 250
291 286 281 277 272 269 265 263 263 260 257 254 253 255 255 251 247 240 236 234 232 231 232 232 230 229 231 232 232 232 233 234 234 234 235 235 236 237 240 241 244 248 249
289 285 281 276 269 264 262 263 263 262 259 256 253 256 254 247 248 243 235 234 232 230 229 228 227 227 227 229 229 229 229 230 232 232 232 233 233 234 234 238 236 245 250
292 287 280 274 269 264 258 253 253 255 257 256 253 251 252 248 245 240 235 232 233 232 230 228 226 224 224 226 226 227 227 227 228 230 231 231 231 229 229 230 232 248 249
294 289 282 274 267 262 258 253 248 246 247 250 250 247 248 248 245 240 234 225 229 232 230 228 226 223 222 222 223 223 224 224 224 225 226 227 227 227 225 224 220 219 231
290 284 279 274 267 259 254 250 247 242 240 242 244 243 242 243 242 242 239 232 225 227 227 225 223 220 219 219 218 218 219 220 220 219 221 223 223 222 221 222 224 221 232
290 284 277 271 266 259 249 246 244 240 236 237 239 239 236 238 239 239 241 239 231 230 222 221 218 216 216 216 215 214 215 216 216 214 216 218 220 219 220 219 220 216 216
292 286 280 274 266 260 251 241 238 236 233 231 233 235 234 232 234 233 234 238 233 232 224 221 215 211 214 213 213 211 211 211 211 209 212 214 215 216 217 218 218 217 224
293 283 281 274 267 259 250 241 234 230 228 228 228 228 231 229 229 228 228 231 233 230 227 218 213 209 208 210 210 210 209 208 207 206 208 210 212 213 214 214 216 220 220
304 284 279 274 267 260 249 239 231 225 223 222 224 224 225 225 224 222 223 225 227 225 224 214 210 205 205 207 206 207 207 206 205 203 204 205 207 210 211 209 210 213 214
314 297 281 272 266 258 247 238 229 221 217 217 217 217 219 220 220 219 220 221 224 222 221 213 207 203 202 203 203 204 204 203 202 200 200 203 205 206 206 205 204 209 214
324 311 288 272 263 255 243 236 227 219 215 213 211 211 212 214 216 216 218 218 220 216 214 210 205 203 198 198 199 201 201 199 199 197 197 200 202 203 201 197 199 198 209
329 324 301 279 264 250 238 232 224 216 211 207 205 206 206 207 211 212 213 215 216 213 202 206 204 200 196 195 196 198 199 197 196 194 195 197 199 200 198 191 198 200 202
338 334 316 290 263 244 231 224 218 212 208 202 199 202 201 201 204 205 208 211 210 203 196 203 200 197 193 192 193 197 198 196 194 193 193 194 195 195 195 192 195 196 207
347 342 330 308 265 229 218 212 206 201 200 196 193 195 196 195 197 199 204 206 205 199 196 201 194 192 189 188 191 196 196 195 191 190 190 191 192 192 192 191 194 193 201
4 1 358 347 278 201 196 192 187 185 187 186 186 188 189 189 190 194 199 201 198 194 196 195 191 187 184 185 188 194 193 193 189 187 187 189 189 189 189 192 196 200 207
18 21 25 30 65 152 159 163 166 170 175 177 178 180 182 184 184 190 193 191 191 190 195 189 185 181 180 182 186 189 192 189 184 184 184 186 188 189 190 195 196 201 205
Height
10548 10549 10549 10551 10552 10553 10555 10556 10559 10561 10564 10568 10573 10579 10587 10593 10599 10606 10616 10624 10631 10641 10652 10662 10670 10678 10686 10694 10702 10711 10718 10725 10733 10743 10748 10753 10756 10760 10765 10770 10774 10779 10782
10526 10527 10526 10528 10528 10531 10533 10534 10537 10540 10543 10546 10551 10557 10564 10573 10578 10585 10592 10601 10610 10619 10630 10641 10651 10659 10668 10675 10684 10694 10702 10710 10719 10727 10734 10740 10746 10746 10754 10759 10764 10769 10773
10505 10505 10505 10505 10504 10508 10509 10509 10513 10516 10520 10524 10529 10535 10542 10550 10557 10563 10571 10579 10588 10597 10608 10619 10630 10641 10649 10658 10667 10677 10686 10694 10704 10711 10719 10727 10734 10737 10741 10748 10752 10757 10762
10486 10486 10485 10483 10481 10484 10485 10487 10490 10494 10498 10501 10504 10512 10519 10527 10535 10542 10549 10557 10567 10576 10586 10598 10609 10620 10630 10639 10650 10660 10670 10679 10688 10696 10703 10713 10719 10728 10729 10736 10741 10745 10750
10464 10464 10464 10462 10460 10462 10462 10464 10467 10471 10474 10473 10478 10485 10494 10500 10512 10522 10528 10536 10546 10556 10567 10577 10587 10598 10610 10620 10631 10642 10652 10662 10672 10681 10689 10700 10706 10718 10719 10722 10729 10735 10740
10447 10446 10444 10442 10443 10443 10444 10445 10448 10451 10452 10452 10456 10460 10467 10476 10486 10499 10508 10515 10524 10534 10546 10556 10567 10577 10589 10601 10611 10622 10634 10645 10656 10665 10674 10686 10694 10705 10713 10697 10719 10726 10730
10436 10434 10431 10428 10426 10425 10426 10426 10430 10434 10432 10431 10431 10436 10445 10454 10460 10470 10481 10492 10501 10512 10525 10536 10547 10559 10571 10583 10593 10604 10615 10627 10640 10649 10659 10670 10681 10691 10697 10696 10707 10714 10719
10423 10421 10418 10415 10411 10409 10408 10408 10411 10413 10414 10416 10417 10419 10425 10431 10437 10445 10457 10471 10481 10492 10503 10515 10527 10540 10553 10565 10576 10587 10597 10608 10621 10633 10643 10655 10668 10676 10684 10687 10693 10701 10707
10414 10411 10408 10405 10401 10399 10397 10396 10396 10398 10398 10399 10399 10403 10406 10412 10419 10428 10438 10449 10461 10470 10481 10495 10507 10520 10533 10547 10559 10570 10581 10594 10605 10615 10626 10639 10655 10662 10672 10679 10681 10686 10699
10403 10400 10397 10394 10391 10390 10388 10386 10386 10387 10387 10387 10389 10387 10392 10396 10401 10409 10419 10428 10441 10451 10461 10473 10487 10500 10513 10529 10542 10554 10566 10579 10591 10601 10611 10624 10639 10650 10658 10669 10674 10668 10686
10387 10383 10382 10380 10378 10375 10373 10372 10373 10374 10376 10377 10378 10379 10381 10383 10386 10393 10403 10413 10424 10434 10443 10454 10468 10482 10495 10510 10524 10539 10552 10564 10577 10588 10600 10611 10625 10635 10643 10655 10662 10665 10674
10368 10363 10360 10358 10358 10360 10359 10358 10357 10358 10360 10364 10367 10369 10371 10375 10376 10381 10390 10400 10410 10418 10427 10437 10449 10463 10477 10491 10507 10523 10537 10550 10563 10575 10588 10600 10612 10622 10634 10644 10662 10658 10661
10347 10341 10338 10336 10334 10335 10338 10341 10342 10343 10345 10348 10353 10358 10362 10365 10370 10373 10379 10386 10394 10405 10413 10424 10434 10448 10462 10475 10491 10506 10521 10535 10549 10563 10577 10589 10599 10611 10624 10635 10650 10652 10650
10317 10311 10309 10308 10308 10310 10312 10317 10322 10326 10330 10333 10338 10345 10350 10355 10361 10367 10371 10378 10384 10391 10400 10411 10421 10435 10448 10460 10474 10490 10505 10521 10536 10551 10565 10576 10588 10601 10613 10625 10638 10635 10636
10288 10280 10276 10275 10277 10281 10285 10291 10297 10304 10311 10316 10321 10329 10337 10343 10350 10357 10364 10370 10375 10380 10388 10397 10408 10421 10433 10445 10459 10475 10491 10506 10522 10538 10554 10565 10576 10589 10602 10612 10621 10631 10633
10258 10250 10246 10245 10246 10251 10257 10264 10270 10278 10289 10296 10303 10312 10323 10331 10339 10347 10354 10361 10366 10372 10379 10385 10396 10409 10420 10433 10446 10462 10478 10493 10510 10528 10543 10554 10565 10579 10592 10602 10613 10622 10624
10233 10225 10220 10218 10219 10223 10230 10237 10244 10253 10265 10275 10285 10295 10306 10318 10327 10337 10345 10352 10359 10364 10371 10377 10386 10399 10411 10424 10436 10451 10466 10481 10498 10517 10534 10545 10556 10569 10581 10591 10603 10613 10619
10213 10203 10197 10195 10195 10198 10204 10211 10220 10231 10242 10253 10265 10278 10289 10303 10316 10327 10337 10344 10351 10358 10364 10371 10377 10389 10401 10414 10428 10441 10456 10472 10490 10509 10524 10536 10548 10560 10572 10583 10593 10603 10610
10194 10185 10179 10175 10174 10177 10182 10189 10198 10209 10220 10232 10246 10261 10274 10289 10303 10316 10327 10335 10343 10351 10357 10364 10370 10381 10392 10406 10420 10433 10447 10463 10480 10497 10513 10527 10540 10552 10564 10576 10587 10597 10606
10176 10169 10163 10159 10158 10160 10164 10170 10179 10190 10201 10213 10228 10244 10260 10276 10290 10304 10317 10327 10336 10345 10351 10357 10364 10373 10385 10400 10414 10426 10439 10453 10470 10487 10503 10519 10533 10545 10558 10571 10582 10592 10603
10163 10156 10150 10146 10145 10146 10149 10154 10163 10174 10185 10198 10213 10229 10246 10263 10278 10293 10308 10320 10330 10338 10345 10352 10359 10367 10379 10393 10407 10419 10432 10446 10462 10479 10496 10511 10526 10540 10554 10568 10579 10589 10599
10152 10145 10139 10136 10135 10136 10138 10143 10151 10161 10173 10186 10201 10216 10234 10252 10269 10285 10300 10313 10323 10332 10341 10348 10355 10363 10374 10389 10403 10416 10429 10441 10456 10473 10489 10506 10521 10536 10551 10563 10573 10585 10594
10144 10137 10132 10129 10127 10128 10131 10135 10142 10152 10164 10178 10193 10207 10225 10244 10261 10278 10293 10305 10318 10329 10338 10345 10351 10360 10370 10385 10400 10413 10426 10439 10453 10468 10485 10502 10518 10530 10544 10556 10569 10580 10588
10140 10133 10128 10125 10123 10124 10126 10130 10137 10146 10158 10172 10186 10202 10219 10237 10255 10273 10287 10300 10312 10324 10331 10338 10346 10355 10368 10382 10397 10411 10424 10436 10448 10465 10482 10498 10512 10526 10538 10551 10563 10574 10578
10140 10133 10127 10124 10122 10123 10125 10130 10136 10145 10156 10168 10182 10199 10216 10234 10252 10269 10282 10296 10311 10321 10329 10336 10344 10354 10366 10380 10394 10408 10420 10432 10446 10463 10480 10495 10510 10522 10534 10546 10557 10569 10577
10144 10136 10129 10126 10125 10125 10127 10132 10139 10147 10156 10167 10181 10198 10215 10233 10251 10266 10282 10297 10309 10318 10326 10334 10343 10353 10366 10381 10396 10409 10420 10431 10444 10461 10478 10493 10507 10521 10532 10544 10556 10565 10573